Location: Leuk
(46.3174°N, 7.6341°E)
Time: 15:25:26
(UTC+00:00)

Cosmos 1782 - Pass Details

Date: 09 March 2021
Orbit: 536 x 551 km, 82.5° (Epoch: 14 April)

Event Time Altitude Azimuth Distance (km) Brightness Sun altitude
Rises 04:38:42 0° 191° (SSW) 2,676 6.1 -13.8°
Reaches altitude 10° 04:40:51 10° 194° (SSW) 1,791 5.2 -13.4°
Maximum altitude 04:44:47 75° 279° (W) 564 2.7 -12.7°
Drops below altitude 10° 04:48:46 10° 6° (N) 1,814 5.6 -12.0°
Sets 04:50:57 0° 8° (N) 2,714 6.5 -11.7°
